« Back
NWS Peachtree City, Ga » Text Product » GA Regional Weather Roundup


Printer-friendly Version
Current Version              Previous Versions:   1  2  3  4  5  6  7  8  9  

Regional Weather Roundup

740
ASUS42 KFFC 031203
RWRGA
WEATHER ROUNDUP FOR GEORGIA
NATIONAL WEATHER SERVICE PEACHTREE CITY GA
800 AM EDT THU SEP 03 2015

NOTE: "FAIR" INDICATES FEW OR NO CLOUDS BELOW 12,000 FEET WITH NO
SIGNIFICANT WEATHER AND/OR OBSTRUCTIONS TO VISIBILITY.

* = USE WITH CAUTION. THE STATIONS MARKED WITH AN ASTERISK MAY NOT
REPORT WEATHER SUCH AS PRECIPITATION, FOG, OR THUNDER AND ARE NOT
QUALITY CONTROLLED BY NWS.

THE REMARK "TC" DENOTES TEMPERATURE READING IN DEGREES CELSIUS.

GAZ001>058-031300-
NORTH GEORGIA

CITY           SKY/WX    TMP DP  RH WIND       PRES   REMARKS
ATLANTA        CLOUDY    75  70  84 NW7       30.02R
6HR MIN TEMP:  75; 6HR MAX TEMP:  79;

ATHENS         CLOUDY    74  71  91 CALM      30.00R
6HR MIN TEMP:  72; 6HR MAX TEMP:  74;

CHAMBLEE       CLOUDY    75  72  90 NW7       30.01R
6HR MIN TEMP:  73; 6HR MAX TEMP:  76;

PEACHTREE CITY CLOUDY    72  71  97 CALM      30.02R FOG
6HR MIN TEMP:  71; 6HR MAX TEMP:  72;

ROME           CLOUDY    73  71  93 N3        30.01R
6HR MIN TEMP:  72; 6HR MAX TEMP:  74;

WEST ATLANTA   CLOUDY    76  70  82 CALM      30.01R
6HR MIN TEMP:  73; 6HR MAX TEMP:  76;

GAINESVILLE    PTCLDY    74  69  85 N5        30.04R
6HR MIN TEMP:  73; 6HR MAX TEMP:  75;

CARTERSVILLE   CLOUDY    73  70  90 CALM      30.03R
6HR MIN TEMP:  71; 6HR MAX TEMP:  73;



CITY           SKY/WX    TMP DP  RH WIND       PRES   REMARKS
DALTON*        MOCLDY    72  72 100 N3        30.02R
LAWRENCEVILLE* CLEAR     73  64  73 CALM      30.01S
MARIETTA       MOCLDY    75  72  90 NW2       30.02R
KENNESAW*      MOCLDY    73  68  83 NW8       30.03R
BLAIRSVILLE*   HAZE      69  61  75 CALM      30.09S VSB 1/4
$$

GAZ059>098-102>109-031300-
CENTRAL GEORGIA

CITY           SKY/WX    TMP DP  RH WIND       PRES   REMARKS
AUGUSTA-BUSH   PTSUNNY   73  72  96 W3        29.96R
6HR MIN TEMP:  71; 6HR MAX TEMP:  73;

AUGUSTA-DANIEL PTSUNNY   76  71  85 CALM      29.98R
6HR MIN TEMP:  74; 6HR MAX TEMP:  78;

COLUMBUS       CLOUDY    75  72  90 CALM      29.99R
6HR MIN TEMP:  74; 6HR MAX TEMP:  78;

MACON          CLOUDY    72  71  97 CALM      29.99R FOG
6HR MIN TEMP:  71; 6HR MAX TEMP:  73;

ROBINS AFB     CLOUDY    73  72  99 CALM      29.98R


CITY           SKY/WX    TMP DP  RH WIND       PRES   REMARKS
LAGRANGE*      CLOUDY    75  75 100 CALM      30.02R FOG
MILLEDGEVILLE* CLOUDY    73  72  94 CALM      29.99R
$$

GAZ099>101-110>166-031300-
SOUTH GEORGIA

CITY           SKY/WX    TMP DP  RH WIND       PRES   REMARKS
SAVANNAH       CLOUDY    74  72  93 N6        29.96R
6HR MIN TEMP:  74; 6HR MAX TEMP:  75; 6HR PCP: TRACE;

VALDOSTA       CLOUDY    75  75 100 CALM      29.98R
6HR MIN TEMP:  72; 6HR MAX TEMP:  76;

ALMA           FOG       72  72 100 NW3       29.97R VSB 1/2
6HR MIN TEMP:  72; 6HR MAX TEMP:  74;

ST SIMONS      CLOUDY    74  74 100 VRB6      29.95R
6HR MIN TEMP:  73; 6HR MAX TEMP:  76; 6HR PCP: TRACE;

FT STEWART     CLOUDY    75  73  93 CALM      29.94R
ALBANY         CLOUDY    75  72  90 CALM      30.00R
HUNTER AFB     MOSUNNY   75  75 100 NE7       29.93R FOG
MOODY AFB      MOCLDY    74  72  95 N2        29.97R
BRUNSWICK      CLOUDY    72  72 100 W5        29.95R


CITY           SKY/WX    TMP DP  RH WIND       PRES   REMARKS
BAINBRIDGE*    MOCLDY    77  73  88 SW3       29.99R
MOULTRIE*      CLOUDY    73  72  94 CALM      29.98S FOG
VIDALIA*       PTSUNNY   73  72  94 W5        29.98R
WAYCROSS*      CLOUDY    76  76 100 NW3       29.99R FOG
DOUGLAS*       PTSUNNY   75  73  94 CALM      29.99R
$$



USA.gov is the U.S. government's official web portal to all federal, state and local government web resources and services.